Hourly Data Report for September 03, 2003

TORONTO CITY
ONTARIO

43°40'00.000" N
79°24'00.000" W
112.50 m
6158355
71508
XTO

Download Data

Hourly Data (September 2003)
Hourly Data Report for September 3, 2003
TIME
LST
Temp Definition
°C
Dew Point Definition
°C
Rel Hum Definition
%
Precip. Amount Definition
mm

Wind Dir Definition
10's deg

Wind Spd Definition
km/h
Visibility Definition
km
Stn Press Definition
kPa
Hmdx Definition


Wind Chill Definition


Weather Definition


00:00 18.7 16.6 88   LegendMM LegendMM LegendMM 100.45     LegendNANA
01:00 18.7 16.6 88   LegendMM LegendMM LegendMM 100.43     LegendNANA
02:00 18.9 16.7 87   LegendMM LegendMM LegendMM 100.37     LegendNANA
03:00 18.4 16.9 91   LegendMM LegendMM LegendMM 100.34     LegendNANA
04:00 18.0 16.7 92   LegendMM LegendMM LegendMM 100.30     LegendNANA
05:00 18.1 16.7 92   LegendMM LegendMM LegendMM 100.25     LegendNANA
06:00 18.3 16.9 92   LegendMM LegendMM LegendMM 100.26     LegendNANA
07:00 18.8 16.9 89   LegendMM LegendMM LegendMM 100.28     LegendNANA
08:00 19.2 16.4 84   LegendMM LegendMM LegendMM 100.21     LegendNANA
09:00 20.3 16.5 79   LegendMM LegendMM LegendMM 100.18 25   LegendNANA
10:00 19.9 16.4 80   LegendMM LegendMM LegendMM 100.14     LegendNANA
11:00 20.7 16.7 78   LegendMM LegendMM LegendMM 100.08 26   LegendNANA
12:00 22.8 17.1 70   LegendMM LegendMM LegendMM 99.99 28   LegendNANA
13:00 23.0 16.4 66   LegendMM LegendMM LegendMM 99.94 28   LegendNANA
14:00 23.8 15.6 60   LegendMM LegendMM LegendMM 99.87 28   LegendNANA
15:00 24.4 15.4 57   LegendMM LegendMM LegendMM 99.81 29   LegendNANA
16:00 23.4 15.5 61   LegendMM LegendMM LegendMM 99.72 28   LegendNANA
17:00 21.8 16.6 72   LegendMM LegendMM LegendMM 99.69 27   LegendNANA
18:00 21.5 16.6 74   LegendMM LegendMM LegendMM 99.66 27   LegendNANA
19:00 20.9 17.5 81   LegendMM LegendMM LegendMM 99.64 27   LegendNANA
20:00 20.5 18.0 86   LegendMM LegendMM LegendMM 99.67 27   LegendNANA
21:00 20.6 18.1 86   LegendMM LegendMM LegendMM 99.64 27   LegendNANA
22:00 20.6 18.0 85   LegendMM LegendMM LegendMM 99.60 27   LegendNANA
23:00 20.6 17.9 85   LegendMM LegendMM LegendMM 99.57 27   LegendNANA

Notes on Data Quality.

Legend

  • E = Estimated
  • M = Missing
  • NA = Not Available*
  • [empty] = Indicates an unobserved value
Date modified: